Gastonia, NC

8:48 AM EDT on September 18, 2019 (GMT -0400)
Gastonia Municipal

Weather History for KAKH - August, 2019

Change the Weather History Date:

Sunday, August 25, 2019

  Actual Average (WUND) Record (WUND)
Temperature  
Mean Temperature 71 °F -  
Max Temperature 78 °F - - (-1)
Min Temperature 64 °F - - (-1)
Cooling Degree Days 6    
Growing Degree Days 21 (Base 50)    
Moisture  
Dew Point 60 °F    
Average Humidity 72    
Maximum Humidity 87    
Minimum Humidity 62    
Precipitation  
Precipitation 0.00 in - - ()
Sea Level Pressure  
Sea Level Pressure 30.13 in    
Wind  
Wind Speed 5 mph ()    
Max Wind Speed 12 mph    
Max Gust Speed -    
Visibility 10.0 miles    
Events      
Averages and records for this station are not official NWS values.
T = Trace of Precipitation, MM = Missing Value Source: Averaged Metar Reports

Daily Weather History Graph

Daily Weather History Graph

Search for Another Location

Airport or City:

Astronomy

Aug. 25, 2019 Rise Set
Actual Time 6:51 AM EDT 8:01 PM EDT
Civil Twilight 6:25 AM EDT 8:27 PM EDT
Nautical Twilight 5:54 AM EDT 8:58 PM EDT
Astronomical Twilight 5:21 AM EDT 9:30 PM EDT
Moon 1:32 AM EDT (8/25) 4:12 PM EDT (8/25)
Length of Visible Light 14h 01m
Length of Day
13h 09m
Waning Crescent, 29% of the Moon is Illuminated
Aug 25
Waning Crescent
Aug 30
New
Sep 5
First Quarter
Sep 14
Full
Sep 21
Last Quarter

Hourly Weather History & Observations

Time (EDT) Temp. Dew Point Humidity Pressure Visibility Wind Dir Wind Speed Gust Speed Precip Events Conditions
12:54 AM 64.9 °F 57.9 °F 78% 30.17 in 10.0 mi NNE 4.6 mph - N/A   Overcast
1:25 AM 64.9 °F 57.9 °F 78% 30.18 in 10.0 mi NNE 5.8 mph - N/A   Overcast
1:54 AM 64.9 °F 59.0 °F 81% 30.16 in 10.0 mi NNE 6.9 mph - N/A   Overcast
2:31 AM 64.9 °F 59.0 °F 81% 30.16 in 10.0 mi North 6.9 mph - N/A   Overcast
2:47 AM 66.0 °F 59.0 °F 78% 30.16 in 10.0 mi NNE 4.6 mph - N/A   Overcast
2:54 AM 66.0 °F 59.0 °F 78% 30.15 in 10.0 mi NNE 6.9 mph - N/A   Overcast
3:54 AM 64.9 °F 59.0 °F 81% 30.14 in 10.0 mi North 5.8 mph - N/A   Overcast
4:54 AM 64.9 °F 57.9 °F 78% 30.12 in 10.0 mi NNE 9.2 mph - N/A   Overcast
5:54 AM 66.0 °F 57.9 °F 75% 30.12 in 10.0 mi North 8.1 mph - N/A   Overcast
6:54 AM 66.0 °F 59.0 °F 78% 30.12 in 10.0 mi North 6.9 mph - N/A   Overcast
7:54 AM 66.9 °F 59.0 °F 76% 30.14 in 10.0 mi North 8.1 mph - N/A   Overcast
8:54 AM 68.0 °F 59.0 °F 73% 30.14 in 10.0 mi NNE 6.9 mph - N/A   Overcast
9:54 AM 70.0 °F 60.1 °F 71% 30.15 in 10.0 mi North 5.8 mph - N/A   Overcast
10:18 AM 71.1 °F 60.1 °F 68% 30.16 in 10.0 mi NNE 8.1 mph - N/A   Overcast
10:54 AM 73.0 °F 60.1 °F 64% 30.15 in 10.0 mi NE 11.5 mph - N/A   Overcast
11:54 AM 72.0 °F 61.0 °F 68% 30.15 in 10.0 mi NNE 9.2 mph - N/A   Overcast
12:54 PM 73.0 °F 61.0 °F 66% 30.14 in 10.0 mi NNE 5.8 mph - N/A   Overcast
1:54 PM 75.0 °F 63.0 °F 66% 30.13 in 10.0 mi NNE 5.8 mph - N/A   Overcast
2:38 PM 78.1 °F 64.0 °F 62% 30.13 in 10.0 mi North - - N/A   Mostly Cloudy
2:54 PM 75.0 °F 62.1 °F 64% 30.11 in 10.0 mi Variable 4.6 mph - N/A   Mostly Cloudy
3:03 PM 75.0 °F 62.1 °F 64% 30.12 in 10.0 mi NNE 5.8 mph - N/A   Overcast
3:17 PM 75.9 °F 62.1 °F 62% 30.12 in 10.0 mi NNE 6.9 mph - N/A   Overcast
3:54 PM 75.0 °F 63.0 °F 66% 30.09 in 10.0 mi NNW 3.5 mph - N/A   Overcast
4:54 PM 77.0 °F 63.0 °F 62% 30.08 in 10.0 mi NNE 4.6 mph - N/A   Overcast
5:54 PM 77.0 °F 63.0 °F 62% 30.06 in 10.0 mi NE 5.8 mph - N/A   Overcast
6:54 PM 75.0 °F 62.1 °F 64% 30.07 in 10.0 mi NE 5.8 mph - N/A   Mostly Cloudy
7:54 PM 72.0 °F 61.0 °F 68% 30.09 in 10.0 mi ENE 4.6 mph - N/A   Partly Cloudy
8:54 PM 70.0 °F 61.0 °F 73% 30.11 in 10.0 mi Calm Calm - N/A   Clear
9:54 PM 66.0 °F 61.0 °F 84% 30.13 in 10.0 mi Calm Calm - N/A   Clear
10:54 PM 64.9 °F 61.0 °F 87% 30.13 in 10.0 mi Calm Calm - N/A   Clear
11:54 PM 64.9 °F 60.1 °F 84% 30.13 in 10.0 mi Calm Calm - N/A   Clear